Time,TemperatureF,DewpointF,PressureIn,WindDirection,WindDirectionDegrees,WindSpeedMPH,WindSpeedGustMPH,Humidity,HourlyPrecipIn,Conditions,Clouds,dailyrainin,SoftwareType,DateUTC
2013-08-10 00:05:00,57.0,53.8,29.97,ESE,108,0.0,0.0,89,0.00,,,0.00,Wunderground v.1.15,2013-08-10 07:05:00,
2013-08-10 00:15:00,57.1,53.9,29.97,ENE,78,0.0,1.0,89,0.00,,,0.00,Wunderground v.1.15,2013-08-10 07:15:00,
2013-08-10 00:25:00,57.1,53.9,29.98,NE,55,0.0,0.0,89,0.00,,,0.00,Wunderground v.1.15,2013-08-10 07:25:00,
2013-08-10 00:35:00,57.0,53.8,29.98,NE,55,0.0,0.0,89,0.00,,,0.00,Wunderground v.1.15,2013-08-10 07:35:00,
2013-08-10 00:40:00,56.9,54.0,29.98,NE,55,0.0,0.0,90,0.00,,,0.00,Wunderground v.1.15,2013-08-10 07:40:00,
2013-08-10 00:50:00,56.8,53.9,29.98,NE,55,0.0,0.0,90,0.00,,,0.00,Wunderground v.1.15,2013-08-10 07:50:00,
2013-08-10 01:00:00,56.6,53.4,29.98,NE,55,0.0,0.0,89,0.00,,,0.00,Wunderground v.1.15,2013-08-10 08:00:00,
2013-08-10 01:10:00,56.2,53.3,29.98,NE,55,0.0,0.0,90,0.00,,,0.00,Wunderground v.1.15,2013-08-10 08:10:00,
2013-08-10 01:20:00,55.8,52.9,29.98,NE,55,0.0,0.0,90,0.00,,,0.00,Wunderground v.1.15,2013-08-10 08:20:00,
2013-08-10 01:25:00,55.8,53.2,29.98,NE,55,0.0,0.0,91,0.00,,,0.00,Wunderground v.1.15,2013-08-10 08:25:00,
2013-08-10 01:34:00,55.5,52.9,29.98,NE,55,0.0,0.0,91,0.00,,,0.00,Wunderground v.1.15,2013-08-10 08:34:00,
2013-08-10 01:40:00,55.5,52.9,29.98,NE,55,0.0,0.0,91,0.00,,,0.00,Wunderground v.1.15,2013-08-10 08:40:00,
2013-08-10 01:49:00,55.3,52.7,29.98,NE,55,0.0,0.0,91,0.00,,,0.00,Wunderground v.1.15,2013-08-10 08:49:00,
2013-08-10 01:55:00,55.5,53.2,29.98,NE,55,0.0,0.0,92,0.00,,,0.00,Wunderground v.1.15,2013-08-10 08:55:00,
2013-08-10 02:05:00,55.9,53.9,29.98,NE,54,0.0,0.0,93,0.00,,,0.00,Wunderground v.1.15,2013-08-10 09:05:00,
2013-08-10 02:10:00,56.1,54.1,29.98,NE,55,0.0,0.0,93,0.00,,,0.00,Wunderground v.1.15,2013-08-10 09:10:00,
2013-08-10 02:20:00,56.3,54.0,29.98,NE,55,0.0,0.0,92,0.00,,,0.00,Wunderground v.1.15,2013-08-10 09:20:00,
2013-08-10 02:30:00,56.5,54.2,29.98,NE,55,0.0,0.0,92,0.00,,,0.00,Wunderground v.1.15,2013-08-10 09:30:00,
2013-08-10 02:39:00,56.8,54.5,29.98,NE,54,0.0,0.0,92,0.00,,,0.00,Wunderground v.1.15,2013-08-10 09:39:00,
2013-08-10 02:50:00,57.1,54.8,29.98,NNE,30,0.0,0.0,92,0.00,,,0.00,Wunderground v.1.15,2013-08-10 09:50:00,
2013-08-10 02:59:00,57.2,54.6,29.98,NNE,30,0.0,0.0,91,0.00,,,0.00,Wunderground v.1.15,2013-08-10 09:59:00,
2013-08-10 03:05:00,57.2,54.6,29.98,NNE,30,0.0,0.0,91,0.00,,,0.00,Wunderground v.1.15,2013-08-10 10:05:00,
2013-08-10 03:10:00,57.1,54.5,29.98,SSW,200,1.0,3.0,91,0.00,,,0.00,Wunderground v.1.15,2013-08-10 10:10:00,
2013-08-10 03:15:00,56.9,54.3,29.98,SSW,200,2.0,3.0,91,0.00,,,0.00,Wunderground v.1.15,2013-08-10 10:15:00,
2013-08-10 03:24:00,57.0,54.4,29.98,SSW,200,0.0,2.0,91,0.00,,,0.00,Wunderground v.1.15,2013-08-10 10:24:00,
2013-08-10 03:30:00,57.0,54.4,29.98,SSW,200,0.0,0.0,91,0.00,,,0.00,Wunderground v.1.15,2013-08-10 10:30:00,
2013-08-10 03:40:00,57.1,54.5,29.98,SSW,200,0.0,0.0,91,0.00,,,0.00,Wunderground v.1.15,2013-08-10 10:40:00,
2013-08-10 03:45:00,57.1,54.2,29.98,NW,315,0.0,0.0,90,0.00,,,0.00,Wunderground v.1.15,2013-08-10 10:45:00,
2013-08-10 03:55:00,57.1,53.9,29.98,NW,315,0.0,0.0,89,0.00,,,0.00,Wunderground v.1.15,2013-08-10 10:55:00,
2013-08-10 04:00:00,57.1,53.9,29.98,NW,315,0.0,0.0,89,0.00,,,0.00,Wunderground v.1.15,2013-08-10 11:00:00,
2013-08-10 04:05:00,57.1,53.9,29.98,NW,315,0.0,0.0,89,0.00,,,0.00,Wunderground v.1.15,2013-08-10 11:05:00,
2013-08-10 04:15:00,56.8,53.6,29.98,SW,234,1.0,2.0,89,0.00,,,0.00,Wunderground v.1.15,2013-08-10 11:15:00,
2013-08-10 04:25:00,56.7,53.5,29.98,SW,234,1.0,1.0,89,0.00,,,0.00,Wunderground v.1.15,2013-08-10 11:25:00,
2013-08-10 04:35:00,56.8,53.6,29.98,SW,234,0.0,0.0,89,0.00,,,0.00,Wunderground v.1.15,2013-08-10 11:35:00,
2013-08-10 04:40:00,56.8,53.6,29.98,SW,234,0.0,0.0,89,0.00,,,0.00,Wunderground v.1.15,2013-08-10 11:40:00,
2013-08-10 04:45:00,56.8,53.6,29.97,SW,234,0.0,0.0,89,0.00,,,0.00,Wunderground v.1.15,2013-08-10 11:45:00,
2013-08-10 04:55:00,56.7,53.5,29.97,SW,234,0.0,1.0,89,0.00,,,0.00,Wunderground v.1.15,2013-08-10 11:55:00,
2013-08-10 05:00:00,56.8,53.6,29.98,SW,234,0.0,0.0,89,0.00,,,0.00,Wunderground v.1.15,2013-08-10 12:00:00,
2013-08-10 05:10:00,56.9,53.7,29.98,SW,234,0.0,0.0,89,0.00,,,0.00,Wunderground v.1.15,2013-08-10 12:10:00,
2013-08-10 05:20:00,57.0,53.8,29.98,SW,222,0.0,0.0,89,0.00,,,0.00,Wunderground v.1.15,2013-08-10 12:20:00,
2013-08-10 05:30:00,57.1,54.2,29.98,SW,222,0.0,1.0,90,0.00,,,0.00,Wunderground v.1.15,2013-08-10 12:30:00,
2013-08-10 05:35:00,57.1,54.2,29.98,WNW,286,0.0,1.0,90,0.00,,,0.00,Wunderground v.1.15,2013-08-10 12:35:00,
2013-08-10 05:40:00,57.2,54.3,29.98,WNW,286,0.0,0.0,90,0.00,,,0.00,Wunderground v.1.15,2013-08-10 12:40:00,
2013-08-10 05:50:00,57.1,53.9,29.98,SW,222,1.0,2.0,89,0.00,,,0.00,Wunderground v.1.15,2013-08-10 12:50:00,
2013-08-10 06:00:00,57.2,54.0,29.98,SW,222,1.0,1.0,89,0.00,,,0.00,Wunderground v.1.15,2013-08-10 13:00:00,
2013-08-10 06:10:00,57.3,54.1,29.98,SW,222,1.0,2.0,89,0.00,,,0.00,Wunderground v.1.15,2013-08-10 13:10:00,
2013-08-10 06:20:00,57.2,54.3,29.99,SW,222,2.0,2.0,90,0.00,,,0.00,Wunderground v.1.15,2013-08-10 13:20:00,
2013-08-10 06:30:00,57.3,54.1,29.99,SW,222,2.0,2.0,89,0.00,,,0.00,Wunderground v.1.15,2013-08-10 13:30:00,
2013-08-10 06:40:00,57.2,54.0,29.99,SW,222,3.0,3.0,89,0.00,,,0.00,Wunderground v.1.15,2013-08-10 13:40:00,
2013-08-10 06:49:00,57.2,54.3,29.99,SW,222,0.0,0.0,90,0.00,,,0.00,Wunderground v.1.15,2013-08-10 13:49:00,
2013-08-10 06:55:00,57.3,54.4,29.99,SW,222,0.0,0.0,90,0.00,,,0.00,Wunderground v.1.15,2013-08-10 13:55:00,
2013-08-10 07:00:00,57.3,54.1,29.99,SW,222,0.0,0.0,89,0.00,,,0.00,Wunderground v.1.15,2013-08-10 14:00:00,
2013-08-10 07:10:00,57.4,54.2,30.00,SW,222,0.0,0.0,89,0.00,,,0.00,Wunderground v.1.15,2013-08-10 14:10:00,
2013-08-10 07:15:00,57.4,54.2,30.00,NNW,340,0.0,0.0,89,0.00,,,0.00,Wunderground v.1.15,2013-08-10 14:15:00,
2013-08-10 07:25:00,57.6,54.7,30.00,NNW,340,0.0,0.0,90,0.00,,,0.00,Wunderground v.1.15,2013-08-10 14:25:00,
2013-08-10 07:30:00,57.8,54.9,30.00,NNW,340,0.0,0.0,90,0.00,,,0.00,Wunderground v.1.15,2013-08-10 14:30:00,
2013-08-10 07:35:00,57.8,54.6,30.00,WSW,240,0.0,2.0,89,0.00,,,0.00,Wunderground v.1.15,2013-08-10 14:35:00,
2013-08-10 07:45:00,57.7,54.5,30.00,SW,223,2.0,4.0,89,0.00,,,0.00,Wunderground v.1.15,2013-08-10 14:45:00,
2013-08-10 07:55:00,57.8,54.6,30.01,SW,223,2.0,3.0,89,0.00,,,0.00,Wunderground v.1.15,2013-08-10 14:55:00,
2013-08-10 08:00:00,58.0,54.5,30.01,SW,223,2.0,2.0,88,0.00,,,0.00,Wunderground v.1.15,2013-08-10 15:00:00,
2013-08-10 08:05:00,58.3,54.8,30.01,SW,223,1.0,2.0,88,0.00,,,0.00,Wunderground v.1.15,2013-08-10 15:05:00,
2013-08-10 08:15:00,58.6,55.1,30.01,SW,223,0.0,0.0,88,0.00,,,0.00,Wunderground v.1.15,2013-08-10 15:15:00,
2013-08-10 08:25:00,58.5,55.0,30.01,SSW,196,2.0,4.0,88,0.00,,,0.00,Wunderground v.1.15,2013-08-10 15:25:00,
2013-08-10 08:35:00,58.3,54.4,30.01,SW,217,3.0,6.0,87,0.00,,,0.00,Wunderground v.1.15,2013-08-10 15:35:00,
2013-08-10 08:45:00,58.6,54.7,30.01,SSW,195,3.0,4.0,87,0.00,,,0.00,Wunderground v.1.15,2013-08-10 15:45:00,
2013-08-10 08:50:00,58.7,54.8,30.01,SSW,198,3.0,4.0,87,0.00,,,0.00,Wunderground v.1.15,2013-08-10 15:50:00,
2013-08-10 09:00:00,58.7,54.8,30.01,SSW,213,6.0,6.0,87,0.00,,,0.00,Wunderground v.1.15,2013-08-10 16:00:00,
2013-08-10 09:05:00,58.8,54.9,30.01,SW,218,5.0,6.0,87,0.00,,,0.00,Wunderground v.1.15,2013-08-10 16:05:00,
2013-08-10 09:10:00,59.1,54.9,30.01,SSW,200,4.0,5.0,86,0.00,,,0.00,Wunderground v.1.15,2013-08-10 16:10:00,
2013-08-10 09:20:00,59.2,55.0,30.02,SW,218,5.0,5.0,86,0.00,,,0.00,Wunderground v.1.15,2013-08-10 16:20:00,
2013-08-10 09:25:00,59.3,55.1,30.02,SW,216,5.0,7.0,86,0.00,,,0.00,Wunderground v.1.15,2013-08-10 16:25:00,
2013-08-10 09:30:00,59.4,55.2,30.02,SSW,209,5.0,6.0,86,0.00,,,0.00,Wunderground v.1.15,2013-08-10 16:30:00,
2013-08-10 09:40:00,59.9,55.4,30.02,SW,219,4.0,4.0,85,0.00,,,0.00,Wunderground v.1.15,2013-08-10 16:40:00,
2013-08-10 09:45:00,60.5,56.0,30.02,SSW,205,2.0,5.0,85,0.00,,,0.00,Wunderground v.1.15,2013-08-10 16:45:00,
2013-08-10 10:00:00,61.7,56.1,30.02,SSW,205,2.0,3.0,82,0.00,,,0.00,Wunderground v.1.15,2013-08-10 17:00:00,
2013-08-10 10:15:00,63.0,56.7,30.02,SW,223,3.0,5.0,80,0.00,,,0.00,Wunderground v.1.15,2013-08-10 17:15:00,
2013-08-10 10:24:00,64.9,57.2,30.02,NW,304,2.0,3.0,76,0.00,,,0.00,Wunderground v.1.15,2013-08-10 17:24:00,
2013-08-10 10:30:00,65.3,57.2,30.03,SSW,211,1.0,6.0,75,0.00,,,0.00,Wunderground v.1.15,2013-08-10 17:30:00,
2013-08-10 10:40:00,64.3,56.9,30.03,SW,227,4.0,4.0,77,0.00,,,0.00,Wunderground v.1.15,2013-08-10 17:40:00,
2013-08-10 10:45:00,65.5,57.0,30.03,SSW,198,2.0,4.0,74,0.00,,,0.00,Wunderground v.1.15,2013-08-10 17:45:00,
2013-08-10 10:55:00,66.3,57.8,30.02,WNW,292,1.0,4.0,74,0.00,,,0.00,Wunderground v.1.15,2013-08-10 17:55:00,
2013-08-10 11:05:00,67.2,57.1,30.02,NNE,21,1.0,1.0,70,0.00,,,0.00,Wunderground v.1.15,2013-08-10 18:05:00,
2013-08-10 11:10:00,68.0,58.2,30.02,NW,321,0.0,3.0,71,0.00,,,0.00,Wunderground v.1.15,2013-08-10 18:10:00,
2013-08-10 11:20:00,70.3,58.4,30.02,WNW,302,2.0,2.0,66,0.00,,,0.00,Wunderground v.1.15,2013-08-10 18:20:00,
2013-08-10 11:35:00,71.2,58.0,30.02,NNW,340,2.0,4.0,63,0.00,,,0.00,Wunderground v.1.15,2013-08-10 18:35:00,
2013-08-10 11:40:00,71.1,58.7,30.02,NNW,332,2.0,4.0,65,0.00,,,0.00,Wunderground v.1.15,2013-08-10 18:40:00,
2013-08-10 11:50:00,71.5,58.7,30.02,NNW,342,4.0,9.0,64,0.00,,,0.00,Wunderground v.1.15,2013-08-10 18:50:00,
2013-08-10 11:55:00,70.9,58.1,30.02,North,355,4.0,9.0,64,0.00,,,0.00,Wunderground v.1.15,2013-08-10 18:55:00,
2013-08-10 12:04:00,71.8,59.4,30.01,North,360,2.0,3.0,65,0.00,,,0.00,Wunderground v.1.15,2013-08-10 19:04:00,
2013-08-10 12:10:00,72.8,59.0,30.01,NNE,14,3.0,6.0,62,0.00,,,0.00,Wunderground v.1.15,2013-08-10 19:10:00,
2013-08-10 12:20:00,73.0,59.7,30.01,NW,321,3.0,7.0,63,0.00,,,0.00,Wunderground v.1.15,2013-08-10 19:20:00,
2013-08-10 12:30:00,73.1,59.8,30.01,NW,310,3.0,3.0,63,0.00,,,0.00,Wunderground v.1.15,2013-08-10 19:30:00,
2013-08-10 12:35:00,74.0,59.2,30.01,NNW,333,2.0,3.0,60,0.00,,,0.00,Wunderground v.1.15,2013-08-10 19:35:00,
2013-08-10 12:45:00,75.6,59.3,30.00,NNW,342,2.0,4.0,57,0.00,,,0.00,Wunderground v.1.15,2013-08-10 19:45:00,
2013-08-10 12:55:00,76.3,59.9,30.00,NNW,329,3.0,3.0,57,0.00,,,0.00,Wunderground v.1.15,2013-08-10 19:55:00,
2013-08-10 13:05:00,77.1,58.6,30.00,NNE,13,3.0,6.0,53,0.00,,,0.00,Wunderground v.1.15,2013-08-10 20:05:00,
2013-08-10 13:10:00,76.4,59.0,30.00,NW,317,3.0,7.0,55,0.00,,,0.00,Wunderground v.1.15,2013-08-10 20:10:00,
2013-08-10 13:20:00,76.5,59.1,30.00,NW,321,6.0,6.0,55,0.00,,,0.00,Wunderground v.1.15,2013-08-10 20:20:00,
2013-08-10 13:25:00,77.1,58.6,30.00,NNW,338,5.0,6.0,53,0.00,,,0.00,Wunderground v.1.15,2013-08-10 20:25:00,
2013-08-10 13:35:00,77.8,58.8,29.99,NW,312,5.0,8.0,52,0.00,,,0.00,Wunderground v.1.15,2013-08-10 20:35:00,
2013-08-10 13:40:00,77.6,58.6,29.99,North,355,6.0,6.0,52,0.00,,,0.00,Wunderground v.1.15,2013-08-10 20:40:00,
2013-08-10 13:50:00,78.7,56.8,29.99,North,5,4.0,4.0,47,0.00,,,0.00,Wunderground v.1.15,2013-08-10 20:50:00,
2013-08-10 14:00:00,79.5,56.9,29.99,North,355,6.0,6.0,46,0.00,,,0.00,Wunderground v.1.15,2013-08-10 21:00:00,
2013-08-10 14:05:00,79.8,56.6,29.99,North,355,6.0,6.0,45,0.00,,,0.00,Wunderground v.1.15,2013-08-10 21:05:00,
2013-08-10 14:10:00,80.6,56.7,29.99,NW,310,5.0,6.0,44,0.00,,,0.00,Wunderground v.1.15,2013-08-10 21:10:00,
2013-08-10 14:20:00,81.2,55.3,29.99,West,274,5.0,5.0,41,0.00,,,0.00,Wunderground v.1.15,2013-08-10 21:20:00,
2013-08-10 14:30:00,82.0,56.0,29.98,NW,319,4.0,8.0,41,0.00,,,0.00,Wunderground v.1.15,2013-08-10 21:30:00,
2013-08-10 14:35:00,81.7,55.7,29.98,North,5,5.0,9.0,41,0.00,,,0.00,Wunderground v.1.15,2013-08-10 21:35:00,
2013-08-10 14:40:00,81.4,56.8,29.98,NNW,327,5.0,5.0,43,0.00,,,0.00,Wunderground v.1.15,2013-08-10 21:40:00,
2013-08-10 14:50:00,82.0,56.0,29.98,NW,309,4.0,4.0,41,0.00,,,0.00,Wunderground v.1.15,2013-08-10 21:50:00,
2013-08-10 14:55:00,82.5,56.4,29.98,North,355,4.0,6.0,41,0.00,,,0.00,Wunderground v.1.15,2013-08-10 21:55:00,
2013-08-10 15:00:00,82.7,55.2,29.98,NW,325,4.0,6.0,39,0.00,,,0.00,Wunderground v.1.15,2013-08-10 22:00:00,
2013-08-10 15:05:00,82.1,56.1,29.98,NW,313,5.0,6.0,41,0.00,,,0.00,Wunderground v.1.15,2013-08-10 22:05:00,
2013-08-10 15:10:00,82.7,55.9,29.98,NNW,329,4.0,4.0,40,0.00,,,0.00,Wunderground v.1.15,2013-08-10 22:10:00,
2013-08-10 15:15:00,83.5,55.9,29.98,NW,305,3.0,4.0,39,0.00,,,0.00,Wunderground v.1.15,2013-08-10 22:15:00,
2013-08-10 15:20:00,83.8,55.5,29.97,NNE,12,4.0,6.0,38,0.00,,,0.00,Wunderground v.1.15,2013-08-10 22:20:00,
2013-08-10 15:30:00,83.9,54.8,29.97,WNW,302,3.0,3.0,37,0.00,,,0.00,Wunderground v.1.15,2013-08-10 22:30:00,
2013-08-10 15:35:00,84.5,54.6,29.97,NW,315,3.0,3.0,36,0.00,,,0.00,Wunderground v.1.15,2013-08-10 22:35:00,
2013-08-10 15:45:00,84.9,55.7,29.97,WNW,286,2.0,3.0,37,0.00,,,0.00,Wunderground v.1.15,2013-08-10 22:45:00,
2013-08-10 15:55:00,84.6,56.2,29.97,NNW,337,3.0,3.0,38,0.00,,,0.00,Wunderground v.1.15,2013-08-10 22:55:00,
2013-08-10 16:04:00,85.0,57.3,29.97,WNW,300,2.0,3.0,39,0.00,,,0.00,Wunderground v.1.15,2013-08-10 23:04:00,
2013-08-10 16:10:00,84.5,56.8,29.97,South,191,3.0,3.0,39,0.00,,,0.00,Wunderground v.1.15,2013-08-10 23:10:00,
2013-08-10 16:15:00,84.0,57.8,29.97,NNW,327,3.0,5.0,41,0.00,,,0.00,Wunderground v.1.15,2013-08-10 23:15:00,
2013-08-10 16:20:00,83.6,58.1,29.97,North,360,3.0,4.0,42,0.00,,,0.00,Wunderground v.1.15,2013-08-10 23:20:00,
2013-08-10 16:30:00,82.8,58.7,29.97,West,270,4.0,4.0,44,0.00,,,0.00,Wunderground v.1.15,2013-08-10 23:30:00,
2013-08-10 16:40:00,82.7,57.9,29.96,NW,312,3.0,4.0,43,0.00,,,0.00,Wunderground v.1.15,2013-08-10 23:40:00,
2013-08-10 16:50:00,82.4,58.9,29.97,NNW,338,3.0,4.0,45,0.00,,,0.00,Wunderground v.1.15,2013-08-10 23:50:00,
2013-08-10 17:00:00,81.7,57.7,29.97,NNW,334,3.0,3.0,44,0.00,,,0.00,Wunderground v.1.15,2013-08-11 00:00:00,
2013-08-10 17:10:00,81.2,58.5,29.97,NW,326,3.0,3.0,46,0.00,,,0.00,Wunderground v.1.15,2013-08-11 00:10:00,
2013-08-10 17:20:00,81.2,57.8,29.97,NNW,331,2.0,2.0,45,0.00,,,0.00,Wunderground v.1.15,2013-08-11 00:20:00,
2013-08-10 17:25:00,80.9,57.6,29.96,North,11,3.0,3.0,45,0.00,,,0.00,Wunderground v.1.15,2013-08-11 00:25:00,
2013-08-10 17:35:00,80.8,57.5,29.97,NNW,328,3.0,3.0,45,0.00,,,0.00,Wunderground v.1.15,2013-08-11 00:35:00,
2013-08-10 17:40:00,80.5,57.2,29.96,WNW,296,3.0,7.0,45,0.00,,,0.00,Wunderground v.1.15,2013-08-11 00:40:00,
2013-08-10 17:50:00,79.5,56.9,29.96,NW,323,3.0,3.0,46,0.00,,,0.00,Wunderground v.1.15,2013-08-11 00:50:00,
2013-08-10 17:55:00,79.4,56.8,29.96,NNW,331,2.0,3.0,46,0.00,,,0.00,Wunderground v.1.15,2013-08-11 00:55:00,
2013-08-10 18:00:00,79.0,56.5,29.96,NW,315,2.0,2.0,46,0.00,,,0.00,Wunderground v.1.15,2013-08-11 01:00:00,
2013-08-10 18:10:00,78.4,55.9,29.96,NW,313,2.0,2.0,46,0.00,,,0.00,Wunderground v.1.15,2013-08-11 01:10:00,
2013-08-10 18:20:00,78.5,56.0,29.96,NW,325,2.0,2.0,46,0.00,,,0.00,Wunderground v.1.15,2013-08-11 01:20:00,
2013-08-10 18:30:00,78.2,55.7,29.96,NNW,342,2.0,7.0,46,0.00,,,0.00,Wunderground v.1.15,2013-08-11 01:30:00,
2013-08-10 18:35:00,76.7,55.5,29.96,NNW,331,3.0,7.0,48,0.00,,,0.00,Wunderground v.1.15,2013-08-11 01:35:00,
2013-08-10 18:40:00,75.3,55.4,29.96,North,360,4.0,4.0,50,0.00,,,0.00,Wunderground v.1.15,2013-08-11 01:40:00,
2013-08-10 18:50:00,73.4,55.7,29.96,WNW,292,3.0,6.0,54,0.00,,,0.00,Wunderground v.1.15,2013-08-11 01:50:00,
2013-08-10 18:55:00,72.8,55.7,29.96,NNW,337,3.0,6.0,55,0.00,,,0.00,Wunderground v.1.15,2013-08-11 01:55:00,
2013-08-10 19:04:00,71.2,56.1,29.96,NNW,329,3.0,4.0,59,0.00,,,0.00,Wunderground v.1.15,2013-08-11 02:04:00,
2013-08-10 19:10:00,71.1,56.0,29.96,NNW,338,2.0,3.0,59,0.00,,,0.00,Wunderground v.1.15,2013-08-11 02:10:00,
2013-08-10 19:20:00,70.8,55.8,29.96,NW,304,1.0,1.0,59,0.00,,,0.00,Wunderground v.1.15,2013-08-11 02:20:00,
2013-08-10 19:25:00,70.5,55.5,29.97,NW,304,0.0,1.0,59,0.00,,,0.00,Wunderground v.1.15,2013-08-11 02:25:00,
2013-08-10 19:34:00,68.8,55.2,29.97,SSW,203,2.0,5.0,62,0.00,,,0.00,Wunderground v.1.15,2013-08-11 02:34:00,
2013-08-10 19:45:00,66.8,55.1,29.97,SSW,197,4.0,6.0,66,0.00,,,0.00,Wunderground v.1.15,2013-08-11 02:45:00,
2013-08-10 19:55:00,65.5,55.1,29.97,SW,220,4.0,6.0,69,0.00,,,0.00,Wunderground v.1.15,2013-08-11 02:55:00,
2013-08-10 20:04:00,64.3,55.1,29.97,SSW,209,6.0,6.0,72,0.00,,,0.00,Wunderground v.1.15,2013-08-11 03:04:00,
2013-08-10 20:10:00,64.0,55.2,29.97,SW,216,5.0,6.0,73,0.00,,,0.00,Wunderground v.1.15,2013-08-11 03:10:00,
2013-08-10 20:20:00,63.6,55.2,29.97,SSW,205,3.0,3.0,74,0.00,,,0.00,Wunderground v.1.15,2013-08-11 03:20:00,
2013-08-10 20:30:00,63.5,55.1,29.98,SSW,205,0.0,0.0,74,0.00,,,0.00,Wunderground v.1.15,2013-08-11 03:30:00,
2013-08-10 20:40:00,63.3,55.2,29.98,SSW,205,0.0,0.0,75,0.00,,,0.00,Wunderground v.1.15,2013-08-11 03:40:00,
2013-08-10 20:50:00,62.5,55.2,29.98,SSW,205,1.0,2.0,77,0.00,,,0.00,Wunderground v.1.15,2013-08-11 03:50:00,
2013-08-10 21:00:00,61.5,54.9,29.99,SSW,200,3.0,5.0,79,0.00,,,0.00,Wunderground v.1.15,2013-08-11 04:00:00,
2013-08-10 21:05:00,61.1,55.2,29.99,SSW,205,3.0,5.0,81,0.00,,,0.00,Wunderground v.1.15,2013-08-11 04:05:00,
2013-08-10 21:10:00,60.8,54.9,29.99,SSW,205,3.0,3.0,81,0.00,,,0.00,Wunderground v.1.15,2013-08-11 04:10:00,
2013-08-10 21:15:00,60.7,55.2,29.99,SSW,205,1.0,3.0,82,0.00,,,0.00,Wunderground v.1.15,2013-08-11 04:15:00,
2013-08-10 21:20:00,60.6,55.1,30.00,SSW,205,0.0,0.0,82,0.00,,,0.00,Wunderground v.1.15,2013-08-11 04:20:00,
2013-08-10 21:25:00,60.4,54.9,30.00,SSW,205,0.0,0.0,82,0.00,,,0.00,Wunderground v.1.15,2013-08-11 04:25:00,
2013-08-10 21:35:00,60.1,54.9,30.00,SSW,205,0.0,0.0,83,0.00,,,0.00,Wunderground v.1.15,2013-08-11 04:35:00,
2013-08-10 21:45:00,60.0,55.5,30.00,NW,312,0.0,1.0,85,0.00,,,0.00,Wunderground v.1.15,2013-08-11 04:45:00,
2013-08-10 21:50:00,60.0,55.5,30.00,NW,312,0.0,0.0,85,0.00,,,0.00,Wunderground v.1.15,2013-08-11 04:50:00,
2013-08-10 21:55:00,59.9,55.4,30.00,NW,312,0.0,0.0,85,0.00,,,0.00,Wunderground v.1.15,2013-08-11 04:55:00,
2013-08-10 22:00:00,59.9,55.4,30.00,NW,312,0.0,3.0,85,0.00,,,0.00,Wunderground v.1.15,2013-08-11 05:00:00,
2013-08-10 22:10:00,59.6,55.4,30.01,SW,229,1.0,1.0,86,0.00,,,0.00,Wunderground v.1.15,2013-08-11 05:10:00,
2013-08-10 22:20:00,59.4,55.5,30.01,SW,229,1.0,2.0,87,0.00,,,0.00,Wunderground v.1.15,2013-08-11 05:20:00,
2013-08-10 22:25:00,59.3,55.7,30.01,SW,222,1.0,2.0,88,0.00,,,0.00,Wunderground v.1.15,2013-08-11 05:25:00,
2013-08-10 22:30:00,59.1,55.5,30.01,SW,225,1.0,4.0,88,0.00,,,0.00,Wunderground v.1.15,2013-08-11 05:30:00,
2013-08-10 22:55:00,58.9,55.7,30.00,SW,217,1.0,2.0,89,0.00,,,0.00,Wunderground v.1.15,2013-08-11 05:55:00,
2013-08-10 23:00:00,58.8,55.6,30.00,SW,217,0.0,0.0,89,0.00,,,0.00,Wunderground v.1.15,2013-08-11 06:00:00,
2013-08-10 23:15:00,58.8,55.6,30.00,SW,217,0.0,0.0,89,0.00,,,0.00,Wunderground v.1.15,2013-08-11 06:15:00,
2013-08-10 23:20:00,58.7,55.5,30.01,SW,217,0.0,0.0,89,0.00,,,0.00,Wunderground v.1.15,2013-08-11 06:20:00,
2013-08-10 23:30:00,58.4,55.5,30.00,SW,217,1.0,4.0,90,0.00,,,0.00,Wunderground v.1.15,2013-08-11 06:30:00,
2013-08-10 23:45:00,58.4,55.8,30.00,West,273,4.0,5.0,91,0.00,,,0.00,Wunderground v.1.15,2013-08-11 06:45:00,
2013-08-10 23:54:00,58.4,55.5,30.00,NW,316,1.0,2.0,90,0.00,,,0.00,Wunderground v.1.15,2013-08-11 06:54:00,